• In Hungary
  • List of Countries
  • For 7 days
  • Water Temperature
  • Satellite Maps
  • Weather Map
  • News
  • Weather Widgets
  • user-avatar
    Login

    Hourly Weather Glasgow

    Today, 21 November, Tuesday

    Time Temperature Precipitation Wind Pressure Humidity
    00:00 +5°C° 0 mm 5 mps 754 mmHg 94%
    01:00 +6°C° 0.3 mm 5 mps 754 mmHg 94%
    02:00 +6°C° 0.3 mm 5 mps 754 mmHg 94%
    03:00 +5°C° 0.3 mm 6 mps 754 mmHg 94%
    04:00 +5°C° 0.6 mm 6 mps 753 mmHg 95%
    05:00 +5°C° 0.6 mm 6 mps 753 mmHg 95%
    06:00 +5°C° 0 mm 6 mps 753 mmHg 95%
    07:00 +5°C° 0.6 mm 7 mps 752 mmHg 95%
    08:00 +5°C° 0.6 mm 7 mps 752 mmHg 95%
    09:00 +5°C° 0.6 mm 7 mps 751 mmHg 95%
    10:00 +6°C° 0.9 mm 7 mps 750 mmHg 96%
    11:00 +6°C° 0.9 mm 7 mps 750 mmHg 96%
    12:00 +7°C° 0 mm 6 mps 749 mmHg 96%
    13:00 +7°C° 1.8 mm 6 mps 748 mmHg 97%
    14:00 +7°C° 1.8 mm 5 mps 747 mmHg 97%
    15:00 +7°C° 1.8 mm 5 mps 745 mmHg 98%
    16:00 +7°C° 2.5 mm 5 mps 744 mmHg 98%
    17:00 +7°C° 2.5 mm 5 mps 742 mmHg 98%
    18:00 +7°C° 2.5 mm 6 mps 741 mmHg 98%
    19:00 +8°C° 0.3 mm 7 mps 740 mmHg 96%
    20:00 +9°C° 0.3 mm 8 mps 739 mmHg 93%
    21:00 +10°C° 0.3 mm 8 mps 738 mmHg 91%
    22:00 +9°C° 0 mm 8 mps 738 mmHg 90%
    23:00 +9°C° 0 mm 8 mps 738 mmHg 89%

    Tomorrow, 22 November, Wednesday

    Time Temperature Precipitation Wind Pressure Humidity
    00:00 +7°C° 0 mm 8 mps 738 mmHg 88%
    01:00 +7°C° 0 mm 8 mps 738 mmHg 88%
    02:00 +6°C° 0 mm 7 mps 738 mmHg 88%
    03:00 +5°C° 0 mm 7 mps 739 mmHg 88%
    04:00 +5°C° 0 mm 6 mps 739 mmHg 88%
    05:00 +5°C° 0 mm 6 mps 739 mmHg 88%
    06:00 +6°C° 0 mm 5 mps 739 mmHg 88%
    07:00 +6°C° 0.1 mm 4 mps 739 mmHg 89%
    08:00 +5°C° 0.1 mm 4 mps 739 mmHg 90%
    09:00 +5°C° 0.1 mm 3 mps 739 mmHg 91%
    10:00 +5°C° 0.9 mm 3 mps 738 mmHg 91%
    11:00 +7°C° 0.9 mm 2 mps 737 mmHg 92%
    12:00 +7°C° 0.9 mm 2 mps 737 mmHg 93%
    13:00 +5°C° 2.9 mm 3 mps 735 mmHg 94%
    14:00 +5°C° 2.9 mm 5 mps 734 mmHg 95%
    15:00 +4°C° 2.9 mm 6 mps 732 mmHg 96%
    16:00 +4°C° 1.2 mm 6 mps 731 mmHg 95%
    17:00 +4°C° 1.2 mm 6 mps 731 mmHg 95%
    18:00 +4°C° 1.2 mm 6 mps 730 mmHg 94%
    19:00 +5°C° 0.1 mm 5 mps 729 mmHg 94%
    20:00 +6°C° 0.1 mm 5 mps 729 mmHg 94%
    21:00 +6°C° 0.1 mm 4 mps 729 mmHg 94%
    22:00 +7°C° 0.8 mm 3 mps 729 mmHg 94%
    23:00 +7°C° 0.8 mm 3 mps 728 mmHg 95%

    Day after tomorrow, 23 November, Thursday

    Time Temperature Precipitation Wind Pressure Humidity
    00:00 +7°C° 0.8 mm 3 mps 728 mmHg 96%
    01:00 +7°C° 0.2 mm 2 mps 728 mmHg 96%
    02:00 +7°C° 0.2 mm 2 mps 728 mmHg 96%
    03:00 +7°C° 0.2 mm 2 mps 727 mmHg 96%
    04:00 +6°C° 0.6 mm 4 mps 727 mmHg 94%
    05:00 +5°C° 0.6 mm 7 mps 727 mmHg 91%
    06:00 +5°C° 0.6 mm 10 mps 727 mmHg 89%
    07:00 +3°C° 0.1 mm 10 mps 727 mmHg 86%
    08:00 +2°C° 0.1 mm 11 mps 727 mmHg 83%
    09:00 0°C° 0.1 mm 12 mps 727 mmHg 79%
    10:00 +2°C° 0.1 mm 12 mps 727 mmHg 77%
    11:00 +3°C° 0.1 mm 13 mps 726 mmHg 75%
    12:00 +3°C° 0.1 mm 13 mps 726 mmHg 73%
    13:00 +3°C° 0.3 mm 14 mps 727 mmHg 75%
    14:00 +3°C° 0.3 mm 14 mps 727 mmHg 77%
    15:00 +2°C° 0.3 mm 15 mps 728 mmHg 79%
    16:00 +3°C° 0.5 mm 14 mps 730 mmHg 79%
    17:00 +3°C° 0.5 mm 13 mps 733 mmHg 80%
    18:00 +2°C° 0.5 mm 11 mps 735 mmHg 80%
    19:00 +2°C° 0.2 mm 10 mps 737 mmHg 80%
    20:00 +2°C° 0.2 mm 9 mps 739 mmHg 80%
    21:00 +2°C° 0.2 mm 8 mps 741 mmHg 80%
    22:00 +1°C° 0 mm 8 mps 742 mmHg 80%
    23:00 0°C° 0 mm 7 mps 743 mmHg 80%

    24 November, Friday

    Time Temperature Precipitation Wind Pressure Humidity
    00:00 0°C° 0 mm 7 mps 744 mmHg 81%
    01:00 0°C° 0 mm 7 mps 745 mmHg 80%
    02:00 0°C° 0 mm 7 mps 746 mmHg 80%
    03:00 0°C° 0 mm 7 mps 746 mmHg 80%
    04:00 0°C° 0 mm 7 mps 747 mmHg 79%
    05:00 -1°C° 0 mm 7 mps 747 mmHg 79%
    06:00 -1°C° 0 mm 7 mps 748 mmHg 79%
    07:00 -1°C° 0 mm 7 mps 748 mmHg 78%
    08:00 -1°C° 0 mm 6 mps 749 mmHg 78%
    09:00 -2°C° 0 mm 6 mps 749 mmHg 78%
    10:00 -1°C° 0 mm 6 mps 749 mmHg 74%
    11:00 +1°C° 0 mm 6 mps 749 mmHg 71%
    12:00 +2°C° 0 mm 6 mps 750 mmHg 67%
    13:00 +2°C° 0 mm 5 mps 750 mmHg 69%
    14:00 +1°C° 0 mm 4 mps 750 mmHg 72%
    15:00 +1°C° 0 mm 4 mps 749 mmHg 74%
    16:00 +1°C° 0 mm 3 mps 749 mmHg 76%
    17:00 +1°C° 0 mm 3 mps 749 mmHg 78%
    18:00 +1°C° 0 mm 2 mps 749 mmHg 80%
    19:00 +1°C° 0 mm 2 mps 749 mmHg 80%
    20:00 +1°C° 0 mm 2 mps 749 mmHg 79%
    21:00 +1°C° 0 mm 2 mps 749 mmHg 79%
    22:00 +1°C° 0 mm 2 mps 749 mmHg 78%
    23:00 +1°C° 0 mm 2 mps 748 mmHg 76%

    25 November, Saturday

    Time Temperature Precipitation Wind Pressure Humidity
    00:00 +1°C° 0 mm 2 mps 748 mmHg 75%
    01:00 +1°C° 0 mm 2 mps 748 mmHg 75%
    02:00 +1°C° 0 mm 2 mps 747 mmHg 75%
    03:00 0°C° 0 mm 3 mps 747 mmHg 75%
    04:00 0°C° 0 mm 3 mps 746 mmHg 76%
    05:00 -2°C° 0 mm 4 mps 746 mmHg 76%
    06:00 -2°C° 0 mm 4 mps 746 mmHg 77%
    07:00 -2°C° 0 mm 5 mps 746 mmHg 76%
    08:00 -2°C° 0 mm 5 mps 746 mmHg 74%
    09:00 -1°C° 0 mm 5 mps 746 mmHg 73%
    10:00 -1°C° 0.1 mm 7 mps 745 mmHg 71%
    11:00 0°C° 0.1 mm 8 mps 745 mmHg 69%
    12:00 +1°C° 0.1 mm 9 mps 744 mmHg 68%
    13:00 +1°C° 0.3 mm 9 mps 744 mmHg 69%
    14:00 +1°C° 0.3 mm 9 mps 743 mmHg 70%
    15:00 +2°C° 0.3 mm 10 mps 743 mmHg 71%
    16:00 +2°C° 0 mm 10 mps 742 mmHg 73%
    17:00 +2°C° 0 mm 10 mps 742 mmHg 74%
    18:00 +2°C° 0 mm 11 mps 742 mmHg 76%
    19:00 +2°C° 0.1 mm 10 mps 742 mmHg 77%
    20:00 +2°C° 0.1 mm 10 mps 742 mmHg 78%
    21:00 +2°C° 0.1 mm 10 mps 743 mmHg 78%
    22:00 +2°C° 0.1 mm 10 mps 743 mmHg 78%
    23:00 +2°C° 0.1 mm 10 mps 744 mmHg 77%

    26 November, Sunday

    Time Temperature Precipitation Wind Pressure Humidity
    00:00 +2°C° 0.1 mm 11 mps 744 mmHg 76%
    01:00 +2°C° 0.2 mm 11 mps 744 mmHg 76%
    02:00 +3°C° 0.2 mm 12 mps 744 mmHg 76%
    03:00 +3°C° 0.2 mm 12 mps 745 mmHg 76%
    04:00 +3°C° 0.1 mm 12 mps 745 mmHg 76%
    05:00 +3°C° 0.1 mm 12 mps 745 mmHg 75%
    06:00 +3°C° 0.1 mm 13 mps 746 mmHg 75%
    07:00 +3°C° 0.3 mm 12 mps 747 mmHg 76%
    08:00 +3°C° 0.3 mm 12 mps 747 mmHg 76%
    09:00 +3°C° 0.3 mm 12 mps 748 mmHg 76%
    10:00 +3°C° 0.4 mm 11 mps 749 mmHg 77%
    11:00 +3°C° 0.4 mm 11 mps 749 mmHg 77%
    12:00 +3°C° 0.4 mm 11 mps 750 mmHg 77%
    13:00 +3°C° 0.4 mm 10 mps 750 mmHg 78%
    14:00 +3°C° 0.4 mm 9 mps 751 mmHg 79%
    15:00 +4°C° 0.4 mm 8 mps 751 mmHg 80%
    16:00 +2°C° 0.1 mm 8 mps 751 mmHg 82%
    17:00 +3°C° 0.1 mm 7 mps 752 mmHg 84%
    18:00 +2°C° 0.1 mm 6 mps 752 mmHg 86%
    19:00 +2°C° 0 mm 6 mps 753 mmHg 87%
    20:00 +2°C° 0 mm 6 mps 753 mmHg 88%
    21:00 +2°C° 0 mm 6 mps 754 mmHg 89%
    22:00 +2°C° 0 mm 7 mps 754 mmHg 87%
    23:00 +1°C° 0 mm 8 mps 754 mmHg 85%
    Show more